MMS 1

Last updated on Jan. 13, 2021, 8:38 a.m. UTC

1 40482U 15011A   21012.29541450 -.00001954  00000-0  00000+0 0  9991
2 40482  32.0950 118.7739 8477888  27.5539 329.4057  0.28531793 11804
UTC
Height (km)
Latitude
Longitude
Inclination
Orbital Period
UTC large
Height (km)
Speed (km/s)
/
Latitude / Longitude
Inclination (degrees)
Orbital Period (minutes)
Azimuth
Elevation
Range (km)
Doppler Factor
iOS Compass Heading
iOS Angle

Next 30 passes for location: Hong Kong

Rise time Rise Azimuth (degrees) Set time Set Azimuth (degrees) Duration Max altitude (degrees)

No matching passes for this satellites